Вернуться в каталог

STARLINK-33852

АктивенСвязьVLEO
NORAD 63644·PAYLOAD·🇺🇸 United States

Запущен Apr 25, 2025 с Cape Canaveral Space Force Station

Loading…

Ближайшие Пролёты (ближайшие 24 часа)

TLE

СвежийSource: CelesTrak SupGP

Эпоха: Sep 15, 2026, 02:44 UTC

1 63644C 25083L   26258.11437500  .00007769  00000+0  28140-3 0  2589
2 63644  43.0039  15.6872 0001506 267.9431 106.8820 15.27575610    12

Отслеживайте STARLINK-33852 в реальном времени с AllMySat

Download on the App Store